EW5833 Weather Reports


time (UTC)temp
F
wind
direction
speed
knots
gust
knots
rain 1hr
in
rain 24hr
in
rain mn
in
humidity
%
barometer
mb
20260510190908 60 225 2.6 7.8 0.00 0.00 0.00 35 1017.3
20260510185906 58 314 2.6 6.1 0.00 0.00 0.00 37 1017.2
20260510185343 58 278 1.7 5.2 0.00 0.00 0.00 36 1017.2
20260510185118 58 278 1.7 5.2 0.00 0.00 0.00 36 1017.2
20260510183907 59 255 2.6 7.8 0.00 0.00 0.00 34 1017.2
20260510183357 57 358 2.6 8.7 0.00 0.09 0.00 34 1017.0
20260510183120 57 358 2.6 8.7 0.00 0.09 0.00 34 1017.0
20260510182343 56 339 3.5 9.6 0.00 0.31 0.00 35 1016.8
20260510182120 56 339 3.5 9.6 0.00 0.31 0.00 35 1016.8
20260510180904 56 303 2.6 7.8 0.00 0.31 0.00 36 1016.8
20260510175907 57 267 2.6 8.7 0.00 0.31 0.00 38 1016.8
20260510175349 55 89 3.5 8.7 0.00 0.31 0.00 37 1016.7
20260510175202 57 7 3.5 9.6 0.00 0.31 0.00 33 1016.8
20260510174906 55 89 3.5 8.7 0.00 0.31 0.00 37 1016.7
20260510174738 57 317 2.6 9.6 0.00 0.31 0.00 34 1016.7
20260510174733 57 7 3.5 9.6 0.00 0.31 0.00 33 1016.8
20260510173730 57 317 2.6 9.6 0.00 0.31 0.00 34 1016.7
20260510172343 56 320 3.5 10.4 0.00 0.31 0.00 35 1016.8
20260510171904 56 320 3.5 10.4 0.00 0.31 0.00 35 1016.8
20260510170900 56 336 3.5 11.3 0.00 0.31 0.00 39 1016.9
20260510170334 55 330 3.5 7.8 0.00 0.31 0.00 36 1017.0
20260510165857 55 330 3.5 7.8 0.00 0.31 0.00 36 1017.0
20260510164909 55 323 3.5 8.7 0.00 0.31 0.00 36 1016.9
20260510164857 55 50 3.5 10.4 0.00 0.31 0.00 36 1016.9
20260510164658 55 316 3.5 8.7 0.00 0.31 0.00 40 1016.8
20260510164258 55 316 3.5 8.7 0.00 0.31 0.00 40 1016.8
20260510163109 55 323 3.5 8.7 0.00 0.31 0.00 36 1016.9
20260510161855 55 174 2.6 7.0 0.00 0.31 0.00 37 1016.9
20260510161019 54 325 3.5 9.6 0.00 0.32 0.00 40 1016.8
20260510160856 54 252 3.5 7.8 0.00 0.31 0.00 38 1016.8
20260510160433 54 325 3.5 9.6 0.00 0.32 0.00 40 1016.8
20260510155338 54 311 3.5 10.4 0.00 0.32 0.00 37 1016.8
20260510154857 54 311 3.5 10.4 0.00 0.32 0.00 37 1016.8
20260510153856 54 268 1.7 7.0 0.00 0.32 0.00 40 1016.6
20260510152855 52 283 3.5 7.8 0.00 0.32 0.00 41 1016.6
20260510151853 52 76 3.5 8.7 0.00 0.32 0.00 39 1016.5
20260510151331 52 227 3.5 9.6 0.00 0.32 0.00 42 1016.5
20260510151105 52 227 3.5 9.6 0.00 0.32 0.00 42 1016.5
20260510150542 52 337 3.5 7.8 0.00 0.32 0.00 41 1016.4
20260510150430 52 337 3.5 7.8 0.00 0.32 0.00 41 1016.4
20260510144851 52 326 3.5 8.7 0.00 0.32 0.00 41 1016.2
20260510143851 51 289 3.5 8.7 0.00 0.32 0.00 44 1016.1
20260510143542 51 328 2.6 7.8 0.00 0.32 0.00 44 1016.1
20260510143430 51 328 2.6 7.8 0.00 0.32 0.00 44 1016.1
20260510142822 51 0 2.6 7.8 0.00 0.32 0.00 44 1016.0
20260510141850 51 0 2.6 7.8 0.00 0.32 0.00 44 1016.0
20260510140850 50 328 3.5 7.0 0.00 0.32 0.00 44 1015.9
20260510140327 50 52 2.6 6.1 0.00 0.33 0.00 45 1015.8
20260510140100 50 52 2.6 6.1 0.00 0.33 0.00 45 1015.8
20260510135332 49 29 2.6 8.7 0.00 0.33 0.00 46 1015.8
20260510135100 49 29 2.6 8.7 0.00 0.33 0.00 46 1015.8
20260510133848 50 285 1.7 7.0 0.00 0.33 0.00 46 1015.8
20260510133330 49 0 1.7 6.1 0.00 0.33 0.00 49 1015.7
20260510132847 49 0 1.7 6.1 0.00 0.33 0.00 49 1015.7
20260510131846 48 59 1.7 5.2 0.00 0.33 0.00 50 1015.6
20260510131338 48 307 1.7 6.1 0.00 0.33 0.00 49 1015.5
20260510130847 48 307 1.7 6.1 0.00 0.33 0.00 49 1015.5
20260510125846 47 315 2.6 8.7 0.00 0.33 0.00 54 1015.4
20260510125326 47 333 2.6 7.8 0.00 0.33 0.00 55 1015.5
20260510125058 47 333 2.6 7.8 0.00 0.33 0.00 55 1015.5
20260510123846 47 338 1.7 7.0 0.00 0.33 0.00 56 1015.2
20260510123331 46 291 1.7 5.2 0.00 0.33 0.00 58 1015.1
20260510122846 46 291 1.7 5.2 0.00 0.33 0.00 58 1015.1
20260510121844 45 321 2.6 6.1 0.00 0.33 0.00 60 1015.0
20260510121338 45 345 2.6 6.1 0.00 0.33 0.00 62 1014.9
20260510120844 45 345 2.6 6.1 0.00 0.33 0.00 62 1014.9
20260510120327 45 300 2.6 7.0 0.00 0.33 0.00 62 1014.7
20260510115843 45 300 2.6 7.0 0.00 0.33 0.00 62 1014.7
20260510115803 44 315 0.9 2.6 0.00 0.33 0.00 64 1014.7
20260510115055 44 315 0.9 2.6 0.00 0.33 0.00 64 1014.7
20260510113844 43 332 1.7 4.3 0.00 0.33 0.00 66 1014.7
20260510113533 42 0 0.9 2.6 0.00 0.33 0.00 67 1014.6
20260510113421 42 0 0.9 2.6 0.00 0.33 0.00 67 1014.6
20260510112541 40 301 0.0 1.7 0.00 0.33 0.00 69 1014.5
20260510112356 40 301 0.0 1.7 0.00 0.33 0.00 69 1014.5
20260510110845 39 246 0.9 2.6 0.00 0.33 0.00 73 1014.4
20260510105845 38 313 0.0 2.6 0.00 0.33 0.00 75 1014.1
20260510105026 38 324 0.0 1.7 0.00 0.33 0.00 75 1014.0
20260510104846 38 0 0.9 1.7 0.00 0.33 0.00 75 1014.0
20260510104339 38 324 0.0 1.7 0.00 0.33 0.00 75 1014.0
20260510102845 38 320 0.0 1.7 0.00 0.33 0.00 75 1013.9
20260510101846 38 0 0.9 2.6 0.00 0.33 0.00 76 1013.9
20260510101822 38 0 0.9 3.5 0.00 0.33 0.00 76 1013.7
20260510101057 38 0 0.9 3.5 0.00 0.33 0.00 76 1013.7
20260510100317 38 0 0.0 1.7 0.00 0.33 0.00 77 1013.7
20260510100049 38 0 0.0 1.7 0.00 0.33 0.00 77 1013.7
20260510094839 39 0 0.0 0.0 0.00 0.33 0.00 77 1013.4
20260510093839 39 0 0.0 2.6 0.00 0.33 0.00 77 1013.3
20260510092844 39 287 0.0 1.7 0.00 0.33 0.00 76 1013.1
20260510091840 39 0 0.0 0.0 0.00 0.33 0.00 76 1013.0
20260510091327 39 0 0.0 0.0 0.00 0.33 0.00 77 1012.8
20260510090840 39 0 0.0 0.0 0.00 0.33 0.00 77 1012.8
20260510085837 40 0 0.0 0.0 0.00 0.33 0.00 76 1012.6
20260510084836 40 0 0.0 1.7 0.00 0.33 0.00 74 1012.5
20260510083836 40 0 0.9 2.6 0.00 0.33 0.00 73 1012.4
20260510083316 39 292 0.0 3.5 0.00 0.33 0.00 78 1012.2
20260510083048 39 292 0.0 3.5 0.00 0.33 0.00 78 1012.2
20260510082323 39 0 0.0 0.0 0.00 0.33 0.00 81 1012.0
20260510082128 40 0 0.0 0.0 0.00 0.33 0.00 79 1011.9
20260510082048 39 0 0.0 0.0 0.00 0.33 0.00 81 1012.0
20260510081659 40 0 0.0 0.0 0.00 0.33 0.00 79 1011.9
20260510075835 40 0 0.0 0.9 0.00 0.33 0.00 77 1011.7
20260510075318 41 0 0.0 0.9 0.00 0.33 0.00 75 1011.6
20260510075045 41 0 0.0 0.9 0.00 0.33 0.00 75 1011.6
20260510073834 42 0 0.0 2.6 0.00 0.33 0.00 73 1011.4
20260510072834 43 0 0.0 1.7 0.00 0.33 0.00 68 1011.3
20260510072320 43 0 0.0 1.7 0.00 0.33 0.00 68 1011.2
20260510071835 43 0 0.0 1.7 0.00 0.33 0.00 68 1011.2
20260510071317 43 0 0.0 1.7 0.00 0.33 0.00 68 1011.2
20260510070834 43 0 0.0 1.7 0.00 0.33 0.00 68 1011.2
20260510065832 44 0 0.0 1.7 0.00 0.33 0.00 65 1011.0
20260510064832 45 78 0.9 3.5 0.00 0.33 0.00 64 1010.9
20260510064310 45 288 0.0 3.5 0.00 0.33 0.00 64 1010.7
20260510064045 45 288 0.0 3.5 0.00 0.33 0.00 64 1010.7
20260510062832 46 0 0.9 3.5 0.00 0.33 0.00 64 1010.6
20260510062312 46 329 0.9 3.5 0.00 0.33 0.00 63 1010.5
20260510062041 46 329 0.9 3.5 0.00 0.33 0.00 63 1010.5
20260510060830 47 315 1.7 4.3 0.00 0.33 0.00 62 1010.3
20260510055829 47 291 1.7 6.1 0.00 0.33 0.00 60 1010.2
20260510054830 48 323 3.5 7.0 0.00 0.33 0.00 59 1010.1
20260510053829 48 343 3.5 7.8 0.00 0.33 0.00 60 1009.9
20260510052829 47 55 1.7 10.4 0.00 0.33 0.00 61 1009.9
20260510051830 47 321 0.9 3.5 0.00 0.33 0.00 66 1009.7
20260510050829 46 0 0.0 1.7 0.00 0.33 0.00 67 1009.6
20260510045829 47 0 0.0 0.0 0.00 0.33 0.00 69 1009.5
20260510044831 48 0 0.0 1.7 0.00 0.33 0.00 63 1009.3
20260510043831 49 0 0.0 3.5 0.00 0.33 0.00 60 1009.2
20260510043319 49 356 0.9 3.5 0.00 0.33 0.00 60 1008.9
20260510042830 49 356 0.9 3.5 0.00 0.33 0.00 60 1008.9
20260510041830 50 0 0.9 3.5 0.00 0.33 0.00 60 1008.9
20260510040829 50 341 0.0 2.6 0.00 0.33 0.00 60 1008.8
20260510035935 51 345 0.9 3.5 0.00 0.33 0.33 58 1008.5
20260510035831 51 0 0.0 2.6 0.00 0.33 0.33 59 1008.7
20260510035337 52 349 0.9 4.3 0.00 0.33 0.33 57 1008.4
20260510035012 51 345 0.9 3.5 0.00 0.33 0.33 58 1008.5
20260510034042 52 349 0.9 4.3 0.00 0.33 0.33 57 1008.4
20260510032831 52 7 1.7 7.0 0.00 0.33 0.33 56 1008.3
20260510031831 53 311 1.7 5.2 0.00 0.33 0.33 57 1008.3
20260510030829 54 352 1.7 7.8 0.00 0.33 0.33 56 1008.0
20260510025829 55 354 1.7 7.0 0.00 0.33 0.33 56 1007.9
20260510024829 56 345 2.6 6.1 0.00 0.33 0.33 54 1007.8
20260510024307 56 0 3.5 11.3 0.00 0.33 0.33 50 1007.6
20260510024041 56 0 3.5 11.3 0.00 0.33 0.33 50 1007.6
20260510023518 57 296 3.5 7.8 0.00 0.33 0.33 49 1007.3
20260510023404 57 296 3.5 7.8 0.00 0.33 0.33 49 1007.3
20260510021829 57 315 3.5 9.6 0.00 0.33 0.33 48 1007.1
20260510020830 57 336 2.6 7.0 0.00 0.33 0.33 48 1006.9
20260510015829 58 265 3.5 7.8 0.00 0.33 0.33 47 1006.4
20260510014830 58 287 2.6 7.8 0.00 0.33 0.33 46 1006.3
20260510013828 59 318 5.2 9.6 0.00 0.33 0.33 45 1006.0
20260510012829 59 28 3.5 8.7 0.00 0.33 0.33 45 1005.5
20260510012309 59 338 2.6 8.7 0.00 0.33 0.33 47 1005.1
20260510012041 59 338 2.6 8.7 0.00 0.33 0.33 47 1005.1
20260510010830 59 310 0.9 7.8 0.00 0.33 0.33 49 1004.9
20260510005828 59 304 0.0 2.6 0.00 0.33 0.33 49 1004.8
20260510005312 60 258 0.0 3.5 0.00 0.32 0.32 47 1004.6
20260510004830 60 258 0.0 3.5 0.00 0.32 0.32 47 1004.6
20260510003831 60 226 0.0 3.5 0.00 0.32 0.32 48 1004.4
20260510003751 61 334 0.9 3.5 0.00 0.32 0.32 47 1004.3
20260510002830 61 334 0.9 3.5 0.00 0.32 0.32 47 1004.3
20260510001829 60 0 0.0 3.5 0.00 0.32 0.32 47 1004.1
20260510000829 61 0 0.9 5.2 0.00 0.32 0.32 47 1004.0
20260510000313 61 297 1.7 5.2 0.00 0.32 0.32 46 1003.9
20260509235831 61 297 1.7 5.2 0.00 0.32 0.32 46 1003.9
20260509235312 62 0 2.6 7.0 0.00 0.32 0.32 46 1003.7
20260509235042 62 0 2.6 7.0 0.00 0.32 0.32 46 1003.7
20260509233836 62 267 1.7 9.6 0.00 0.32 0.32 44 1003.7
20260509233240 63 296 2.6 8.7 0.00 0.32 0.32 43 1003.3
20260509233022 63 304 3.5 9.6 0.00 0.32 0.32 44 1003.3
20260509231830 63 296 2.6 8.7 0.00 0.32 0.32 43 1003.3
20260509231311 64 200 3.5 9.6 0.00 0.32 0.32 42 1003.2
20260509231042 64 200 3.5 9.6 0.00 0.32 0.32 42 1003.2
20260509230318 64 292 3.5 10.4 0.00 0.32 0.32 43 1003.1
20260509230040 64 292 3.5 10.4 0.00 0.32 0.32 43 1003.1
20260509225316 65 292 2.6 7.8 0.00 0.32 0.32 42 1002.8
20260509225040 65 292 2.6 7.8 0.00 0.32 0.32 42 1002.8
20260509224308 66 245 4.3 11.3 0.00 0.32 0.32 40 1002.6
20260509224042 66 245 4.3 11.3 0.00 0.32 0.32 40 1002.6
20260509222830 67 0 2.6 7.8 0.00 0.32 0.32 39 1002.4
20260509221829 67 333 3.5 13.0 0.00 0.32 0.32 39 1002.2
20260509220829 67 317 3.5 8.7 0.00 0.32 0.32 40 1002.0
20260509215830 66 127 3.5 11.3 0.00 0.32 0.32 42 1002.0
20260509215315 66 302 2.6 8.7 0.00 0.32 0.32 41 1001.9
20260509215041 66 302 2.6 8.7 0.00 0.32 0.32 41 1001.9
20260509214749 66 187 3.5 7.8 0.00 0.32 0.32 41 1001.8
20260509213828 66 187 3.5 7.8 0.00 0.32 0.32 41 1001.8
20260509212829 66 299 3.5 13.0 0.00 0.32 0.32 41 1001.8
20260509211829 67 291 3.5 13.0 0.00 0.32 0.32 42 1001.7
20260509210829 67 285 2.6 9.6 0.00 0.32 0.32 41 1001.6
20260509210316 66 230 3.5 9.6 0.00 0.32 0.32 46 1001.7
20260509205829 66 230 3.5 9.6 0.00 0.32 0.32 46 1001.7
20260509204829 66 250 3.5 7.8 0.00 0.32 0.32 44 1001.7
20260509203829 66 314 2.6 8.7 0.00 0.32 0.32 46 1001.7
20260509203304 65 306 2.6 8.7 0.00 0.32 0.32 45 1001.5
20260509202828 65 306 2.6 8.7 0.00 0.32 0.32 45 1001.5
20260509201829 65 259 3.5 11.3 0.00 0.32 0.32 45 1001.9
20260509200830 65 204 3.5 16.5 0.00 0.32 0.32 49 1002.4
20260509200317 64 208 4.3 11.3 0.00 0.32 0.32 49 1002.6
20260509195826 64 208 4.3 11.3 0.00 0.32 0.32 49 1002.6
20260509194819 64 290 3.5 11.3 0.00 0.32 0.32 54 1002.3
20260509193820 65 315 1.7 5.2 0.00 0.32 0.32 63 1002.4
20260509192821 63 0 1.7 7.8 0.11 0.32 0.32 70 1002.4